This demonstration page uses our WeatherBlox Daily Observations layout. Learn more.

Left ArrowRight Arrow

Hourly Observations for April 20, 2015

Temp ( °F °C ) Dew Point ( °F °C ) Humidity (%) Winds ( mph kmh ) Pressure ( in mb ) Visibility ( mi km ) Precip ( " mm )
12:09 am 00:09 Cloudy 64 17.8 61 16.1 90 90 SSW 8 13 29.44 997 10 16.0934 0 0.0254
12:53 am 00:53 Cloudy with Light Rain 64 17.8 59 15 84 84 SW 17 28 29.44 997 10 16.0934 0 0.0254
1:01 am 01:01 Cloudy 64 17.8 58 14.4 81 81 WSW 12 19 29.47 998 10 16.0934 0 0.0254
1:10 am 01:10 Cloudy 64 17.8 58 14.4 81 81 SSW 13 20 29.47 998 10 16.0934 0 0.0254
1:53 am 01:53 Cloudy 63 17.2 57 13.9 81 81 SW 10 17 29.46 998 10 16.0934 0 0.0254
2:33 am 02:33 Mostly Cloudy 62 16.7 56 13.3 80 80 WSW 10 17 29.47 998 10 16.0934 0 0
2:53 am 02:53 Cloudy 62 16.7 56 13.3 80 80 SW 9 15 29.45 997 10 16.0934 0 0
3:17 am 03:17 Partly Cloudy 61 16.1 55 12.8 81 81 SW 8 13 29.47 998 10 16.0934 0 0
3:46 am 03:46 Mostly Cloudy 61 16.1 56 13.3 84 84 SW 7 11 29.47 998 10 16.0934 0 0
3:53 am 03:53 Mostly Cloudy 61 16.1 56 13.3 84 84 SSW 10 17 29.46 998 10 16.0934 0 0
4:39 am 04:39 Partly Cloudy 60 15.6 55 12.8 84 84 VRB 6 9 29.47 998 10 16.0934 0 0
4:53 am 04:53 Partly Cloudy 60 15.6 56 13.3 86 86 SSW 9 15 29.47 998 10 16.0934 0 0
5:53 am 05:53 Mostly Clear 60 15.6 56 13.3 86 86 VRB 7 11 29.46 998 10 16.0934 0 0
6:53 am 06:53 Cloudy 61 16.1 57 13.9 87 87 S 7 11 29.44 997 10 16.0934 0 0.0254
7:53 am 07:53 Cloudy 61 16.1 55 12.8 81 81 SSW 10 17 29.44 997 10 16.0934 0 0.0254
8:53 am 08:53 Cloudy 61 16.1 54 12.2 78 78 SW 14 22 29.45 997 10 16.0934 0 0
9:10 am 09:10 Cloudy with Rain 58 14.4 55 12.8 90 90 WSW 12 19 29.47 998 1.75 2.816345 0.03 0.762
9:17 am 09:17 Cloudy with Light Rain 58 14.4 56 13.3 93 93 WSW 10 17 29.47 998 1.75 2.816345 0.05 1.27
9:20 am 09:20 Cloudy with Light Rain 58 14.4 56 13.3 93 93 SW 8 13 29.47 998 3 4.82802 0.05 1.27
9:42 am 09:42 Cloudy with Light Rain 59 15 56 13.3 90 90 SW 12 19 29.47 998 10 16.0934 0.05 1.27
9:53 am 09:53 Cloudy with Light Rain 58 14.4 55 12.8 90 90 SW 10 17 29.46 998 5 8.0467 0.06 1.524
10:33 am 10:33 Cloudy 59 15 56 13.3 90 90 SW 6 9 29.47 998 10 16.0934 0.01 0.254
10:53 am 10:53 Cloudy with Light Rain 59 15 55 12.8 87 87 WSW 10 17 29.48 998 1.75 2.816345 0.05 1.27
10:59 am 10:59 Cloudy with Light Rain 58 14.4 55 12.8 90 90 WSW 12 19 29.5 999 3 4.82802 0.01 0.254
11:18 am 11:18 Mostly Cloudy 60 15.6 55 12.8 84 84 WSW 16 26 29.5 999 10 16.0934 0.01 0.254
11:53 am 11:53 Mostly Cloudy 62 16.7 53 11.7 73 73 W 15 24 29.51 999 10 16.0934 0.01 0.254
12:43 pm 12:43 Mostly Cloudy 60 15.6 53 11.7 78 78 WSW 14 22 29.53 1000 10 16.0934 0 0
12:53 pm 12:53 Cloudy 61 16.1 52 11.1 72 72 WSW 17 28 29.54 1000 10 16.0934 0 0
1:53 pm 13:53 Mostly Cloudy 62 16.7 48 8.9 60 60 SW 21 33 29.55 1001 10 16.0934 0 0
2:53 pm 14:53 Cloudy 60 15.6 48 8.9 65 65 W 14 22 29.57 1001 10 16.0934 0 0
3:53 pm 15:53 Cloudy 57 13.9 44 6.7 62 62 W 16 26 29.6 1002 10 16.0934 0 0
4:53 pm 16:53 Cloudy 57 13.9 43 6.1 60 60 W 10 17 29.61 1003 10 16.0934 0 0
5:53 pm 17:53 Cloudy 58 14.4 40 4.4 51 51 W 15 24 29.62 1003 10 16.0934 0 0
6:53 pm 18:53 Mostly Cloudy with Rain 51 10.6 43 6.1 74 74 W 16 26 29.66 1005 4 6.43736 0 0.0254
7:53 pm 19:53 Mostly Cloudy 52 11.1 43 6.1 72 72 W 6 9 29.68 1005 10 16.0934 0 0.0254
8:53 pm 20:53 Mostly Clear 52 11.1 37 2.8 57 57 W 12 19 29.7 1006 10 16.0934 0 0
9:53 pm 21:53 Cloudy 52 11.1 38 3.3 59 59 W 9 15 29.75 1007 10 16.0934 0 0
10:53 pm 22:53 Partly Cloudy 50 10 34 1.1 54 54 W 12 19 29.77 1008 10 16.0934 0 0
11:53 pm 23:53 Cloudy 50 10 36 2.2 59 59 W 8 13 29.78 1009 10 16.0934 0 0

Powered by AerisWeather